TimeCDT,TemperatureF,Dew PointF,Humidity,Sea Level PressureIn,VisibilityMPH,Wind Direction,Wind SpeedMPH,Gust SpeedMPH,PrecipitationIn,Events,Conditions,WindDirDegrees,DateUTC
12:51 AM,73.9,71.1,91,29.80,10.0,West,5.8,-,N/A,,Mostly Cloudy,270,2013-07-20 05:51:00
1:51 AM,73.9,70.0,87,29.79,10.0,WNW,5.8,-,N/A,,Scattered Clouds,290,2013-07-20 06:51:00
2:51 AM,73.9,69.1,85,29.79,10.0,NW,5.8,-,N/A,,Scattered Clouds,310,2013-07-20 07:51:00
3:51 AM,73.0,66.9,81,29.79,10.0,NW,8.1,-,N/A,,Partly Cloudy,320,2013-07-20 08:51:00
4:51 AM,72.0,66.0,81,29.81,10.0,NW,8.1,-,N/A,,Partly Cloudy,320,2013-07-20 09:51:00
5:51 AM,71.1,64.9,81,29.81,10.0,NNW,8.1,-,N/A,,Scattered Clouds,330,2013-07-20 10:51:00
6:51 AM,72.0,63.0,73,29.84,10.0,NNW,10.4,-,N/A,,Scattered Clouds,340,2013-07-20 11:51:00
7:51 AM,73.9,64.0,71,29.84,10.0,North,8.1,-,N/A,,Partly Cloudy,350,2013-07-20 12:51:00
8:51 AM,78.1,64.9,64,29.86,10.0,NNE,5.8,-,N/A,,Partly Cloudy,20,2013-07-20 13:51:00
9:51 AM,80.1,64.9,60,29.87,10.0,NNE,4.6,-,N/A,,Scattered Clouds,30,2013-07-20 14:51:00
10:51 AM,82.0,63.0,52,29.88,10.0,ENE,5.8,-,N/A,,Scattered Clouds,60,2013-07-20 15:51:00
11:51 AM,84.9,61.0,44,29.88,10.0,NE,3.5,-,N/A,,Scattered Clouds,50,2013-07-20 16:51:00
12:51 PM,84.0,61.0,46,29.88,10.0,Variable,3.5,-,N/A,,Scattered Clouds,0,2013-07-20 17:51:00
1:51 PM,87.1,60.1,40,29.86,10.0,North,5.8,-,N/A,,Scattered Clouds,10,2013-07-20 18:51:00
2:51 PM,87.1,57.9,37,29.86,10.0,WNW,10.4,-,N/A,,Scattered Clouds,300,2013-07-20 19:51:00
3:51 PM,88.0,57.0,35,29.85,10.0,Variable,6.9,-,N/A,,Scattered Clouds,0,2013-07-20 20:51:00
4:51 PM,88.0,59.0,37,29.83,10.0,WNW,6.9,-,N/A,,Scattered Clouds,300,2013-07-20 21:51:00
5:51 PM,86.0,63.0,46,29.83,10.0,East,9.2,-,N/A,,Scattered Clouds,90,2013-07-20 22:51:00
6:51 PM,81.0,61.0,50,29.87,10.0,ENE,12.7,-,N/A,,Scattered Clouds,60,2013-07-20 23:51:00
7:51 PM,75.9,70.0,82,29.88,10.0,NE,12.7,-,N/A,,Mostly Cloudy,50,2013-07-21 00:51:00
8:51 PM,73.0,69.1,87,29.91,10.0,NE,11.5,-,0.02,Rain-Thunderstorm,Light Thunderstorms and Rain,40,2013-07-21 01:51:00
9:28 PM,71.6,69.8,94,29.96,10.0,North,3.5,-,0.04,Rain,Light Rain,360,2013-07-21 02:28:00
9:51 PM,72.0,68.0,87,29.96,10.0,North,5.8,-,0.04,,Overcast,360,2013-07-21 02:51:00
10:51 PM,71.1,66.0,84,29.92,10.0,NE,9.2,-,0.00,,Overcast,40,2013-07-21 03:51:00
11:51 PM,71.1,66.0,84,29.93,10.0,NNE,4.6,-,N/A,,Mostly Cloudy,20,2013-07-21 04:51:00